Thunder radar more information blitzortung!


Radar de pluja more information rain snow radar


Visita la nostra xarxa de llocs de meteo:

Template documentation
and downloads

And another site



No particular awareness of the weather is required.    There are no Weather-warnings

Pagina Historial Weather Underground text

Diari Resum Cap La, TWC- Unitats:  Mètric    Imperial   Tant
« Previous Dia
SegĂźent Dia »
Diari Setmana Mensual Anual Personalitzada
  Maxima: Minima: Media:
Temperatura: -17.8 °C -7.7 °C -5.7 °C
Punt de rosada: -17.8 °C -9.8 °C -9.2 °C
Humitat: Humidity % 38 % 69 %
Wind Speed: 0 km/h 0 km/h 1.8 km/h
RĂ fegues de vent: 0 km/h - -
Vent:- - South
Pression baro: 0 hPa 34466.1 hPa -
Precipitacions: 0 mm    
Historical Graphs
 
 
Dades de taula per Cap La, TWC-
Temps Temperatura Punt de rosada Pression baro Vent Wind Speed RĂ fegues de vent Humitat Rainfall Rate (Hourly)
-17.8 °C -17.8 °C 0 hPa Calm     Humidity % 0 mm
00:04 -6.1 °C -9.7 °C 34500 hPa Calm     67 % 0 mm
00:09 -6.2 °C -9.7 °C 34500 hPa Calm     67 % 0 mm
00:14 -6.2 °C -9.7 °C 34500 hPa Calm     67 % 0 mm
00:19 -6.1 °C -9.7 °C 34500 hPa Calm     67 % 0 mm
00:24 -6.2 °C -9.6 °C 34500 hPa Calm     68 % 0 mm
00:29 -6.2 °C -9.5 °C 34500 hPa Calm     69 % 0 mm
00:34 -6.4 °C -9.7 °C 34500 hPa Calm     69 % 0 mm
00:39 -6.5 °C -9.8 °C 34500 hPa Calm     69 % 0 mm
00:44 -6.6 °C -9.8 °C 34500 hPa Calm     70 % 0 mm
00:49 -6.7 °C -9.8 °C 34500 hPa Calm     70 % 0 mm
00:54 -6.7 °C -9.7 °C 34500 hPa Calm     71 % 0 mm
00:59 -6.7 °C -9.7 °C 34500 hPa Calm     71 % 0 mm
01:04 -6.7 °C -9.7 °C 34500 hPa Calm     71 % 0 mm
01:09 -6.7 °C -9.7 °C 34500 hPa Calm     71 % 0 mm
01:14 -6.7 °C -9.5 °C 34500 hPa Calm     73 % 0 mm
01:19 -6.7 °C -9.5 °C 34500 hPa Calm     73 % 0 mm
01:24 -6.8 °C -9.6 °C 34533.8 hPa Calm     73 % 0 mm
01:29 -6.8 °C -9.6 °C 34533.8 hPa Calm     73 % 0 mm
01:34 -6.8 °C -9.6 °C 34533.8 hPa Calm     73 % 0 mm
01:39 -6.7 °C -9.5 °C 34533.8 hPa Calm     73 % 0 mm
01:44 -6.8 °C -9.7 °C 34533.8 hPa Calm     72 % 0 mm
01:49 -6.9 °C -9.7 °C 34533.8 hPa Calm     73 % 0 mm
01:54 -6.9 °C -9.7 °C 34500 hPa Calm     73 % 0 mm
01:59 -6.9 °C -9.7 °C 34500 hPa Calm     73 % 0 mm
02:04 -6.9 °C -9.6 °C 34500 hPa Calm     74 % 0 mm
02:09 -6.9 °C -9.6 °C 34533.8 hPa Calm     74 % 0 mm
02:14 -7 °C -9.6 °C 34533.8 hPa Calm     74 % 0 mm
02:19 -7.1 °C -9.6 °C 34533.8 hPa Calm     75 % 0 mm
02:24 -7.1 °C -9.6 °C 34533.8 hPa Calm     75 % 0 mm
02:29 -7.1 °C -9.6 °C 34533.8 hPa Calm     75 % 0 mm
02:34 -7.1 °C -9.6 °C 34533.8 hPa Calm     75 % 0 mm
02:39 -7.2 °C -9.7 °C 34500 hPa Calm     75 % 0 mm
02:44 -7.2 °C -9.8 °C 34500 hPa Calm     75 % 0 mm
02:49 -7.3 °C -9.7 °C 34500 hPa Calm     76 % 0 mm
02:54 -7.3 °C -9.6 °C 34500 hPa Calm     77 % 0 mm
02:59 -7.3 °C -9.5 °C 34500 hPa Calm     78 % 0 mm
03:04 -7.3 °C -9.5 °C 34500 hPa Calm     78 % 0 mm
03:09 -7.3 °C -9.5 °C 34500 hPa Calm     78 % 0 mm
03:14 -7.3 °C -9.6 °C 34500 hPa Calm     77 % 0 mm
03:19 -7.4 °C -9.6 °C 34500 hPa Calm     78 % 0 mm
03:24 -7.5 °C -9.7 °C 34533.8 hPa Calm     78 % 0 mm
03:29 -7.6 °C -9.7 °C 34533.8 hPa Calm     78 % 0 mm
03:34 -7.6 °C -9.7 °C 34533.8 hPa Calm     78 % 0 mm
03:39 -7.6 °C -9.8 °C 34500 hPa SW 3.1 km/h   78 % 0 mm
03:44 -7.6 °C -9.7 °C 34500 hPa Calm     78 % 0 mm
03:49 -7.6 °C -9.8 °C 34500 hPa Calm     78 % 0 mm
03:54 -7.6 °C -9.8 °C 34533.8 hPa SW 3.1 km/h   78 % 0 mm
03:59 -7.6 °C -9.7 °C 34533.8 hPa Calm     79 % 0 mm
04:04 -7.7 °C -9.7 °C 34533.8 hPa Calm     79 % 0 mm
04:09 -7.7 °C -9.7 °C 34533.8 hPa Calm     79 % 0 mm
04:14 -7.7 °C -9.7 °C 34533.8 hPa Calm     79 % 0 mm
04:19 -7.6 °C -9.7 °C 34533.8 hPa Calm     79 % 0 mm
04:24 -7.6 °C -9.6 °C 34533.8 hPa Calm     80 % 0 mm
04:29 -7.6 °C -9.5 °C 34533.8 hPa Calm     80 % 0 mm
04:34 -7.6 °C -9.5 °C 34533.8 hPa Calm     80 % 0 mm
04:39 -7.5 °C -9.6 °C 34500 hPa Calm     79 % 0 mm
04:44 -7.4 °C -9.4 °C 34500 hPa Calm     79 % 0 mm
04:49 -7.3 °C -9.4 °C 34500 hPa Calm     79 % 0 mm
04:54 -7.2 °C -9.4 °C 34533.8 hPa Calm     78 % 0 mm
04:59 -7.3 °C -9.3 °C 34533.8 hPa Calm     79 % 0 mm
05:04 -7.3 °C -9.4 °C 34533.8 hPa Calm     79 % 0 mm
05:09 -7.4 °C -9.6 °C 34533.8 hPa Calm     78 % 0 mm
05:14 -7.4 °C -9.6 °C 34533.8 hPa Calm     78 % 0 mm
05:19 -7.5 °C -9.6 °C 34533.8 hPa Calm     79 % 0 mm
05:24 -7.6 °C -9.6 °C 34533.8 hPa Calm     79 % 0 mm
05:29 -7.6 °C -9.8 °C 34533.8 hPa Calm     78 % 0 mm
05:34 -7.7 °C -9.7 °C 34533.8 hPa Calm     79 % 0 mm
05:39 -7.7 °C -9.7 °C 34533.8 hPa Calm     79 % 0 mm
05:44 -7.7 °C -9.7 °C 34533.8 hPa Calm     79 % 0 mm
05:49 -7.7 °C -9.7 °C 34533.8 hPa Calm     79 % 0 mm
05:54 -7.7 °C -9.7 °C 34533.8 hPa Calm     79 % 0 mm
05:59 -7.7 °C -9.7 °C 34533.8 hPa Calm     79 % 0 mm
06:04 -7.7 °C -9.7 °C 34533.8 hPa SW 3.1 km/h   79 % 0 mm
06:09 -7.7 °C -9.7 °C 34533.8 hPa Calm     79 % 0 mm
06:14 -7.7 °C -9.7 °C 34533.8 hPa Calm     79 % 0 mm
06:19 -7.7 °C -9.7 °C 34533.8 hPa Calm     79 % 0 mm
06:24 -7.6 °C -9.7 °C 34533.8 hPa Calm     79 % 0 mm
06:29 -7.6 °C -9.7 °C 34533.8 hPa Calm     79 % 0 mm
06:34 -7.6 °C -9.6 °C 34533.8 hPa Calm     79 % 0 mm
06:39 -7.5 °C -9.6 °C 34500 hPa Calm     79 % 0 mm
06:44 -7.5 °C -9.6 °C 34500 hPa Calm     79 % 0 mm
06:49 -7.4 °C -9.5 °C 34500 hPa Calm     79 % 0 mm
06:54 -7.4 °C -9.3 °C 34533.8 hPa Calm     80 % 0 mm
06:59 -7.4 °C -9.4 °C 34533.8 hPa Calm     79 % 0 mm
07:04 -7.4 °C -9.4 °C 34533.8 hPa Calm     79 % 0 mm
07:09 -7.3 °C -9.4 °C 34533.8 hPa Calm     79 % 0 mm
07:14 -7.3 °C -9.4 °C 34533.8 hPa Calm     79 % 0 mm
07:19 -7.3 °C -9.3 °C 34533.8 hPa Calm     79 % 0 mm
07:24 -7.2 °C -9.4 °C 34533.8 hPa Calm     78 % 0 mm
07:29 -7.2 °C -9.4 °C 34533.8 hPa Calm     78 % 0 mm
07:34 -7.2 °C -9.3 °C 34533.8 hPa Calm     78 % 0 mm
07:39 -7.2 °C -9.3 °C 34533.8 hPa Calm     78 % 0 mm
07:44 -7.2 °C -9.3 °C 34533.8 hPa Calm     78 % 0 mm
07:49 -7.2 °C -9.3 °C 34533.8 hPa Calm     78 % 0 mm
07:54 -7.1 °C -9.4 °C 34533.8 hPa Calm     77 % 0 mm
07:59 -7 °C -9.3 °C 34533.8 hPa Calm     77 % 0 mm
08:04 -6.8 °C -9.1 °C 34533.8 hPa Calm     77 % 0 mm
08:09 -6.7 °C -8.9 °C 34533.8 hPa Calm     78 % 0 mm
08:14 -6.6 °C -8.8 °C 34533.8 hPa Calm     77 % 0 mm
08:19 -6.4 °C -8.9 °C 34533.8 hPa Calm     76 % 0 mm
08:24 -6.4 °C -8.8 °C 34533.8 hPa Calm     76 % 0 mm
08:29 -6.1 °C -8.7 °C 34533.8 hPa Calm     75 % 0 mm
08:34 -5.8 °C -8.5 °C 34533.8 hPa Calm     74 % 0 mm
08:39 -5.8 °C -8.6 °C 34533.8 hPa NE 3.1 km/h   73 % 0 mm
08:44 -5.8 °C -8.6 °C 34533.8 hPa NNE 3.1 km/h   73 % 0 mm
08:49 -5.8 °C -8.8 °C 34533.8 hPa Calm     71 % 0 mm
08:54 -5.7 °C -8.8 °C 34533.8 hPa Calm     71 % 0 mm
08:59 -5.5 °C -8.7 °C 34533.8 hPa NNE 3.1 km/h   70 % 0 mm
09:04 -5.4 °C -8.6 °C 34533.8 hPa ENE 2.3 km/h   70 % 0 mm
09:09 -5.4 °C -8.8 °C 34533.8 hPa NW 2.3 km/h   69 % 0 mm
09:14 -5.2 °C -8.7 °C 34533.8 hPa Calm     68 % 0 mm
09:19 -5 °C -8.4 °C 34533.8 hPa Calm     68 % 0 mm
09:24 -5.1 °C -8.7 °C 34567.7 hPa Calm     67 % 0 mm
09:29 -5 °C -8.6 °C 34567.7 hPa Calm     67 % 0 mm
09:34 -4.9 °C -8.7 °C 34567.7 hPa Calm     66 % 0 mm
09:39 -4.8 °C -8.5 °C 34567.7 hPa Calm     66 % 0 mm
09:44 -4.7 °C -8.6 °C 34567.7 hPa Calm     65 % 0 mm
09:49 -4.4 °C -8.3 °C 34567.7 hPa Calm     65 % 0 mm
09:54 -4.5 °C -8.4 °C 34567.7 hPa Calm     65 % 0 mm
09:59 -4.3 °C -8.3 °C 34567.7 hPa Calm     64 % 0 mm
10:04 -4.2 °C -8.4 °C 34567.7 hPa Calm     63 % 0 mm
10:09 -4.1 °C -8.3 °C 34567.7 hPa WNW 2.3 km/h   63 % 0 mm
10:14 -4 °C -8.2 °C 34567.7 hPa WNW 2.3 km/h   63 % 0 mm
10:19 -4.1 °C -8.6 °C 34567.7 hPa Calm     61 % 0 mm
10:24 -4.1 °C -8.6 °C 34567.7 hPa Calm     61 % 0 mm
10:29 -4.2 °C -8.5 °C 34567.7 hPa Calm     62 % 0 mm
10:34 -4 °C -8.4 °C 34567.7 hPa Calm     61 % 0 mm
10:39 -3.8 °C -8.4 °C 34567.7 hPa NE 3.1 km/h   60 % 0 mm
10:44 -3.5 °C -8.2 °C 34567.7 hPa Calm     60 % 0 mm
10:49 -3.6 °C -8.6 °C 34567.7 hPa Calm     58 % 0 mm
10:54 -3.6 °C -8.6 °C 34567.7 hPa Calm     58 % 0 mm
10:59 -3.5 °C -8.4 °C 34567.7 hPa Calm     58 % 0 mm
11:04 -3.3 °C -8.4 °C 34567.7 hPa Calm     57 % 0 mm
11:09 -2.9 °C -8 °C 34533.8 hPa Calm     57 % 0 mm
11:14 -2.7 °C -7.9 °C 34533.8 hPa Calm     56 % 0 mm
11:19 -2.7 °C -8 °C 34533.8 hPa Calm     56 % 0 mm
11:24 -2.7 °C -8.1 °C 34533.8 hPa Calm     55 % 0 mm
11:29 -2.6 °C -8.1 °C 34533.8 hPa Calm     55 % 0 mm
11:34 -2.8 °C -8.3 °C 34533.8 hPa Calm     55 % 0 mm
11:39 -2.7 °C -8.3 °C 34533.8 hPa NE 7.6 km/h 4.2 km/h 54 % 0 mm
11:44 -2.6 °C -8.2 °C 34533.8 hPa NNE 9 km/h 6.3 km/h 54 % 0 mm
11:49 -2.5 °C -8.1 °C 34533.8 hPa ENE 6 km/h 6.3 km/h 54 % 0 mm
11:54 -2.3 °C -8.1 °C 34533.8 hPa East 6.3 km/h 5.1 km/h 53 % 0 mm
11:55 -2.3 °C -8.2 °C 34533.8 hPa ENE 9 km/h 7.6 km/h 53 % 0 mm
12:04 -2.1 °C -8.1 °C 34533.8 hPa SE 11.9 km/h 4.2 km/h 52 % 0 mm
12:09 -1.9 °C -8.1 °C 34533.8 hPa NE 9 km/h 5.1 km/h 51 % 0 mm
12:14 -1.6 °C -8 °C 34533.8 hPa South 3.1 km/h 3.1 km/h 50 % 0 mm
12:19 -1.4 °C -8 °C 34533.8 hPa South 11.9 km/h 5.6 km/h 49 % 0 mm
12:24 -1.1 °C -7.7 °C 34533.8 hPa West 9 km/h 5.6 km/h 49 % 0 mm
12:29 -1.1 °C -8.1 °C 34533.8 hPa SW 9 km/h 5.6 km/h 47 % 0 mm
12:34 -1.1 °C -8.1 °C 34533.8 hPa SW 11.9 km/h 7.6 km/h 47 % 0 mm
12:39 -1.1 °C -8.3 °C 34500 hPa WSW 15 km/h 5.1 km/h 46 % 0 mm
12:44 -0.9 °C -8.1 °C 34500 hPa SW 12.7 km/h 7.6 km/h 46 % 0 mm
12:49 -1 °C -8.4 °C 34500 hPa SW 15.6 km/h 9.8 km/h 45 % 0 mm
12:54 -0.9 °C -8.4 °C 34500 hPa WSW 9 km/h 7.6 km/h 44 % 0 mm
12:59 -0.9 °C -8.5 °C 34500 hPa WSW 17.9 km/h 6.3 km/h 44 % 0 mm
13:04 -0.8 °C -8.4 °C 34500 hPa SW 11.9 km/h 7.6 km/h 44 % 0 mm
13:09 -0.7 °C -8.3 °C 34466.1 hPa WSW 15 km/h 9.8 km/h 44 % 0 mm
13:14 -0.6 °C -8.4 °C 34466.1 hPa WSW 14 km/h 5.6 km/h 43 % 0 mm
13:19 -0.6 °C -9.4 °C 34466.1 hPa SSW 11.9 km/h 9.3 km/h 38 % 0 mm
13:24 -0.4 °C -8.4 °C 34466.1 hPa WSW 9 km/h 5.6 km/h 42 % 0 mm
13:29 -0.3 °C -8.3 °C 34466.1 hPa NNW 9 km/h 6.8 km/h 42 % 0 mm
13:34 -0.1 °C -8.4 °C 34466.1 hPa NE 6 km/h 5.6 km/h 41 % 0 mm
13:39 -0.1 °C -8.4 °C 34466.1 hPa WSW 6 km/h 4.2 km/h 41 % 0 mm
Meteo Sesrovires
Elogis d' Weather Underground - 2 mb

Guio original per  Jim McMurry - jmcmurry@mwt.net Adaptat per a la plantilla per  Wim van der Kuil - Leuven-Template.eu

Trobareu la nostra informacio del temps tambe a:

Weather Underground

AWEKAS